Powrót do katalogu

DELTA 2 DEB

AktywnyHEO
NORAD 38677·DEBRIS·🇺🇸 United States

Wystrzelony Mar 15, 2008 z Cape Canaveral Space Force Station

Loading…

Następne Przeloty (najbliższe 24 godziny)

TLE

ŚwieżeSource: Space-Track

Epoka: Sep 13, 2026, 18:07 UTC

1 38677U 08012D   26256.75552341  .00047403  00000-0  54336-3 0  9997
2 38677  39.9812 133.1268 3914021 347.0601  28.0840  7.72431432 23291

Śledź DELTA 2 DEB w czasie rzeczywistym z AllMySat

Download on the App Store